This is the latest recevied weather packets stored in our database for station/object K7TUS-6. If no packets are shown the sender has not sent any weather packets the latest 10 day(s).
| Time | Temp. | Humidity | Pressure | Rain* | Wind** | Luminosity | Snow |
|---|---|---|---|---|---|---|---|
| 1777662006 | 17.78° C | 5% | 982.1 hPa | - | - | - | - |
| 1777661705 | 17.78° C | 5% | 984.1 hPa | - | - | - | - |
| 1777661405 | 17.78° C | 5% | 983.9 hPa | - | - | - | - |
| 1777661104 | 17.22° C | 5% | 983.5 hPa | - | - | - | - |
| 1777660804 | 17.22° C | 4% | 983.3 hPa | - | - | - | - |
| 1777660503 | 18.89° C | 4% | 982.3 hPa | - | - | - | - |
| 1777660208 | 18.89° C | 4% | 982.1 hPa | - | - | - | - |
| 1777659608 | 19.44° C | 5% | 982.2 hPa | - | - | - | - |
| 1777659307 | 18.89° C | 4% | 982.6 hPa | - | - | - | - |
| 1777658706 | 19.44° C | 4% | 983.1 hPa | - | - | - | - |
| 1777658406 | 20° C | 3% | 983.7 hPa | - | - | - | - |
| 1777657805 | 18.89° C | 1% | 983.3 hPa | - | - | - | - |
| 1777657509 | 17.78° C | 2% | 983.3 hPa | - | - | - | - |
| 1777657207 | 18.89° C | 4% | 983.1 hPa | - | - | - | - |
| 1777656907 | 18.33° C | 3% | 981.7 hPa | - | - | - | - |
| 1777656606 | 17.78° C | 4% | 982.1 hPa | - | - | - | - |
| 1777656306 | 16.67° C | 5% | 982 hPa | - | - | - | - |
| 1777656005 | 15.56° C | 2% | 982 hPa | - | - | - | - |
| 1777655704 | 16.67° C | 5% | 982.6 hPa | - | - | - | - |
| 1777655404 | 15.56° C | 12% | 982.2 hPa | - | - | - | - |
| 1777655104 | 13.33° C | 13% | 983.2 hPa | - | - | - | - |
| 1777654803 | 11.67° C | 11% | 982.4 hPa | - | - | - | - |
| 1777654509 | 11.11° C | 13% | 981.9 hPa | - | - | - | - |
| 1777654208 | 11.67° C | 16% | 981.9 hPa | - | - | - | - |
| 1777653908 | 11.11° C | 17% | 981.4 hPa | - | - | - | - |
* Rain since midnight (hover to see other rain measurements)
** Current wind speed in m/s (hover to see current wind gust speed)